When you browse on this site, cookies collect data to enhance your experience and personalize the content and advertising you see.
Visit our Privacy Policy to learn more. By continuing to use the site, you agree to this use of cookies and data.

Hourly Weather Maracaibo

Today, 19 September, Saturday

Time Temperature Precipitation Wind Pressure Humidity
00:00 +28°C° 1.3 mm 3 mps 752 mmHg 86%
01:00 +28°C° 1.3 mm 3 mps 752 mmHg 87%
02:00 +27°C° 1.7 mm 3 mps 752 mmHg 88%
03:00 +27°C° 1.7 mm 3 mps 752 mmHg 89%
04:00 +27°C° 1.7 mm 3 mps 752 mmHg 89%
05:00 +27°C° 1.7 mm 3 mps 752 mmHg 88%
06:00 +28°C° 1.7 mm 3 mps 752 mmHg 87%
07:00 +28°C° 1.7 mm 3 mps 753 mmHg 86%
08:00 +29°C° 1.6 mm 2 mps 753 mmHg 80%
09:00 +31°C° 1.6 mm 2 mps 753 mmHg 75%
10:00 +32°C° 1.6 mm 2 mps 753 mmHg 70%
11:00 +32°C° 1.3 mm 2 mps 752 mmHg 68%
12:00 +34°C° 1.3 mm 2 mps 751 mmHg 66%
13:00 +34°C° 1.3 mm 2 mps 750 mmHg 65%
14:00 +34°C° 1.9 mm 2 mps 750 mmHg 68%
15:00 +33°C° 1.9 mm 3 mps 750 mmHg 71%
16:00 +33°C° 1.9 mm 3 mps 750 mmHg 74%
17:00 +31°C° 0.8 mm 3 mps 750 mmHg 76%
18:00 +30°C° 0.8 mm 3 mps 751 mmHg 78%
19:00 +29°C° 0.8 mm 3 mps 751 mmHg 80%
20:00 +29°C° 0.5 mm 3 mps 752 mmHg 81%
21:00 +28°C° 0.5 mm 4 mps 752 mmHg 82%
22:00 +28°C° 0.5 mm 4 mps 753 mmHg 83%
23:00 +28°C° 0.9 mm 4 mps 752 mmHg 84%

Tomorrow, 20 September, Sunday

Time Temperature Precipitation Wind Pressure Humidity
00:00 +28°C° 0.9 mm 3 mps 752 mmHg 86%
01:00 +27°C° 0.9 mm 3 mps 752 mmHg 87%
02:00 +27°C° 1.8 mm 3 mps 752 mmHg 87%
03:00 +27°C° 1.8 mm 2 mps 751 mmHg 87%
04:00 +27°C° 1.8 mm 2 mps 751 mmHg 87%
05:00 +27°C° 0.1 mm 2 mps 752 mmHg 87%
06:00 +28°C° 0.1 mm 1 mps 752 mmHg 86%
07:00 +28°C° 0.1 mm 1 mps 753 mmHg 86%
08:00 +29°C° 0.4 mm 2 mps 753 mmHg 81%
09:00 +30°C° 0.4 mm 2 mps 753 mmHg 76%
10:00 +32°C° 0.4 mm 2 mps 753 mmHg 71%
11:00 +32°C° 0.3 mm 2 mps 752 mmHg 69%
12:00 +34°C° 0.3 mm 2 mps 751 mmHg 67%
13:00 +33°C° 0.3 mm 1 mps 751 mmHg 64%
14:00 +33°C° 0.2 mm 1 mps 750 mmHg 65%
15:00 +33°C° 0.2 mm 1 mps 750 mmHg 66%
16:00 +33°C° 0.2 mm 1 mps 750 mmHg 67%
17:00 +31°C° 0.7 mm 1 mps 750 mmHg 72%
18:00 +30°C° 0.7 mm 1 mps 751 mmHg 78%
19:00 +29°C° 0.7 mm 1 mps 751 mmHg 83%
20:00 +28°C° 0.3 mm 2 mps 752 mmHg 84%
21:00 +28°C° 0.3 mm 2 mps 752 mmHg 85%
22:00 +28°C° 0.3 mm 2 mps 752 mmHg 86%
23:00 +28°C° 0.2 mm 2 mps 752 mmHg 87%

Day after tomorrow, 21 September, Monday

Time Temperature Precipitation Wind Pressure Humidity
00:00 +28°C° 0.2 mm 2 mps 752 mmHg 87%
01:00 +28°C° 0.2 mm 3 mps 752 mmHg 87%
02:00 +28°C° 0.3 mm 2 mps 751 mmHg 88%
03:00 +28°C° 0.3 mm 2 mps 751 mmHg 88%
04:00 +27°C° 0.3 mm 2 mps 751 mmHg 89%
05:00 +27°C° 2.9 mm 2 mps 751 mmHg 90%
06:00 +27°C° 2.9 mm 2 mps 752 mmHg 91%
07:00 +27°C° 2.9 mm 2 mps 752 mmHg 91%
08:00 +28°C° 0.2 mm 2 mps 752 mmHg 86%
09:00 +30°C° 0.2 mm 2 mps 752 mmHg 82%
10:00 +31°C° 0.2 mm 1 mps 753 mmHg 77%
11:00 +32°C° 0 mm 1 mps 752 mmHg 72%
12:00 +33°C° 0 mm 1 mps 751 mmHg 67%
13:00 +33°C° 0 mm 1 mps 750 mmHg 62%
14:00 +33°C° 0 mm 1 mps 750 mmHg 64%
15:00 +33°C° 0 mm 1 mps 750 mmHg 65%
16:00 +33°C° 0 mm 1 mps 750 mmHg 66%
17:00 +32°C° 0.1 mm 2 mps 750 mmHg 70%
18:00 +31°C° 0.1 mm 2 mps 751 mmHg 74%
19:00 +30°C° 0.1 mm 3 mps 751 mmHg 78%
20:00 +29°C° 0 mm 3 mps 751 mmHg 79%
21:00 +29°C° 0 mm 3 mps 752 mmHg 80%
22:00 +29°C° 0 mm 4 mps 752 mmHg 81%
23:00 +28°C° 0.1 mm 3 mps 752 mmHg 82%

22 September, Tuesday

Time Temperature Precipitation Wind Pressure Humidity
00:00 +28°C° 0.1 mm 3 mps 752 mmHg 82%
01:00 +28°C° 0.1 mm 3 mps 751 mmHg 83%
02:00 +28°C° 0.7 mm 3 mps 751 mmHg 84%
03:00 +28°C° 0.7 mm 2 mps 751 mmHg 86%
04:00 +27°C° 0.7 mm 2 mps 751 mmHg 87%
05:00 +27°C° 0.6 mm 2 mps 751 mmHg 87%
06:00 +28°C° 0.6 mm 2 mps 752 mmHg 87%
07:00 +28°C° 0.6 mm 2 mps 752 mmHg 86%
08:00 +29°C° 0 mm 2 mps 752 mmHg 80%
09:00 +31°C° 0 mm 2 mps 752 mmHg 74%
10:00 +32°C° 0 mm 2 mps 752 mmHg 68%
11:00 +34°C° 0 mm 2 mps 751 mmHg 64%
12:00 +34°C° 0 mm 1 mps 751 mmHg 61%
13:00 +35°C° 0 mm 1 mps 750 mmHg 57%
14:00 +35°C° 0 mm 1 mps 750 mmHg 59%
15:00 +34°C° 0 mm 1 mps 749 mmHg 61%
16:00 +34°C° 0 mm 1 mps 749 mmHg 63%
17:00 +33°C° 0 mm 1 mps 749 mmHg 67%
18:00 +31°C° 0 mm 2 mps 750 mmHg 72%
19:00 +30°C° 0 mm 2 mps 750 mmHg 76%
20:00 +30°C° 0.7 mm 2 mps 751 mmHg 79%
21:00 +30°C° 0.7 mm 3 mps 751 mmHg 81%
22:00 +29°C° 0.7 mm 3 mps 752 mmHg 83%
23:00 +29°C° 0.3 mm 3 mps 751 mmHg 84%

23 September, Wednesday

Time Temperature Precipitation Wind Pressure Humidity
00:00 +29°C° 0.3 mm 3 mps 751 mmHg 86%
01:00 +28°C° 0.3 mm 3 mps 751 mmHg 87%
02:00 +28°C° 2.4 mm 2 mps 751 mmHg 89%
03:00 +28°C° 2.4 mm 2 mps 751 mmHg 90%
04:00 +28°C° 2.4 mm 1 mps 751 mmHg 91%
05:00 +28°C° 0.6 mm 2 mps 751 mmHg 91%
06:00 +28°C° 0.6 mm 2 mps 752 mmHg 91%
07:00 +28°C° 0.6 mm 2 mps 752 mmHg 91%
08:00 +29°C° 0.1 mm 2 mps 752 mmHg 85%
09:00 +31°C° 0.1 mm 2 mps 752 mmHg 78%
10:00 +32°C° 0.1 mm 1 mps 752 mmHg 71%
11:00 +33°C° 0 mm 1 mps 752 mmHg 67%
12:00 +34°C° 0 mm 1 mps 751 mmHg 63%
13:00 +35°C° 0 mm 1 mps 750 mmHg 58%
14:00 +35°C° 0 mm 1 mps 750 mmHg 60%
15:00 +34°C° 0 mm 1 mps 749 mmHg 62%
16:00 +34°C° 0 mm 1 mps 749 mmHg 64%
17:00 +32°C° 0.4 mm 2 mps 750 mmHg 70%
18:00 +31°C° 0.4 mm 2 mps 750 mmHg 75%
19:00 +30°C° 0.4 mm 2 mps 751 mmHg 81%
20:00 +30°C° 1.1 mm 2 mps 751 mmHg 82%
21:00 +29°C° 1.1 mm 2 mps 752 mmHg 82%
22:00 +29°C° 1.1 mm 3 mps 752 mmHg 83%
23:00 +29°C° 0.5 mm 3 mps 752 mmHg 84%

24 September, Thursday

Time Temperature Precipitation Wind Pressure Humidity
00:00 +29°C° 0.5 mm 3 mps 752 mmHg 86%
01:00 +28°C° 0.5 mm 4 mps 751 mmHg 88%
02:00 +28°C° 1.1 mm 3 mps 751 mmHg 89%
03:00 +28°C° 1.1 mm 2 mps 751 mmHg 90%
04:00 +28°C° 1.1 mm 2 mps 751 mmHg 91%
05:00 +28°C° 0.3 mm 2 mps 752 mmHg 90%
06:00 +28°C° 0.3 mm 2 mps 752 mmHg 89%
07:00 +29°C° 0.3 mm 2 mps 752 mmHg 88%
08:00 +30°C° 0.3 mm 2 mps 752 mmHg 80%
09:00 +32°C° 0.3 mm 2 mps 753 mmHg 72%
10:00 +35°C° 0.3 mm 2 mps 753 mmHg 63%
11:00 +34°C° 0 mm 1 mps 752 mmHg 61%
12:00 +35°C° 0 mm 1 mps 751 mmHg 58%
13:00 +35°C° 0 mm 1 mps 751 mmHg 55%
14:00 +35°C° 0.2 mm 1 mps 750 mmHg 58%
15:00 +35°C° 0.2 mm 2 mps 750 mmHg 61%
16:00 +35°C° 0.2 mm 2 mps 750 mmHg 64%
17:00 +32°C° 1.3 mm 2 mps 750 mmHg 70%
18:00 +31°C° 1.3 mm 3 mps 751 mmHg 75%
19:00 +30°C° 1.3 mm 3 mps 751 mmHg 81%
20:00 +29°C° 0.7 mm 3 mps 752 mmHg 81%
21:00 +29°C° 0.7 mm 3 mps 752 mmHg 82%
22:00 +29°C° 0.7 mm 3 mps 753 mmHg 82%
23:00 +29°C° 0.1 mm 3 mps 752 mmHg 84%
Show more